Погода в Бордж-Седрии

Тунис     36°42′48″N   10°22′10″E
темп.,
°C
ветер,
м/с
пор.,
м/с
влажн.,
%
обл.,
%
осадки,
мм/ч
давл.,
гПа
погр.,
м
10 августа, ср
ср1001:00+27зсз23680 0.0 1016458
04:00+25з23740 0.0 1015292
07:00+26зсз23670 0.0 1016364
10:00+30с33440 0.0 10161043
13:00+32св764637 0.0 10151294
16:00+31ссв674740 0.0 10141332
19:00+29св45550 0.0 1014602
22:00+27ссв34630 0.0 1015553
11 августа, чт
чт1101:00+27зсз11660 0.0 1015582
04:00+26з23690 0.0 1014310
07:00+27сз23640 0.0 1015431
10:00+30ссв44500 0.0 10151226
13:00+31св65470 0.0 10151018
16:00+30св67500 0.0 1013842
19:00+28св44560 0.0 1013696
22:00+27ссв33610 0.0 1014526
12 августа, пт
пт1201:00+26ссз11630 0.0 1014506
04:00+25зсз12670 0.0 1013326
07:00+26зсз23650 0.0 1014451
10:00+30с33460 0.0 10141178
13:00+31св65430 0.0 10141461
16:00+30св66460 0.0 1013881
19:00+29св34530 0.0 1013412
22:00+27в01590 0.0 1015254
13 августа, сб
сб1301:00+26ю22600 0.0 1014168
04:00+26ююз12620 0.0 1013103
07:00+27ююз22570 0.0 1013181
10:00+33з23330 0.0 1013891
13:00+37ссв34230 0.0 10121518
16:00+34св44320 0.0 1012490
19:00+31всв33390 0.0 1011224
22:00+29ссв01410 0.0 101281
14 августа, вс
вс1401:00+29сз11410 0.0 101260
04:00+28зсз23430 0.0 101296
07:00+28сз35460 0.0 1012264
10:00+31ссв44520 0.0 1013826
13:00+33всв43445 0.0 1012776
16:00+31св665065 0.0 1011505
19:00+29св445674 0.0 1011404
22:00+28вюв22565 0.0 1012153